GFSFLT1_500_rhum_132.txt.gz
RH
7 6 10 11 14 16 31 62 59 64 75 48 48 48 52 54 52 48 38 32 37 36 33 34 39 39 44 49 49 44 41 39
12 9 8 4 7 12 15 36 64 72 66 54 47 48 57 58 56 58 46 41 36 35 38 38 43 43 46 51 51 52 55 45
6 7 7 8 6 5 10 13 55 73 77 66 56 61 65 68 65 66 55 45 42 40 43 46 47 46 41 50 54 58 55 56
5 7 4 5 6 4 4 8 18 66 82 76 84 69 61 64 64 67 59 52 52 50 48 50 49 48 42 47 47 55 63 65
21 19 9 5 4 4 4 4 10 48 86 80 83 60 63 65 79 77 70 66 65 67 70 71 63 53 49 44 42 43 54 71
52 58 34 26 4 2 4 7 8 46 92 88 90 84 69 77 87 82 82 77 73 76 74 80 70 55 57 76 86 82 57 67
55 36 32 22 8 5 4 8 12 40 71 96 91 92 72 78 88 86 92 88 79 72 74 86 65 71 95 88 97 94 96 94
73 28 37 27 26 19 14 7 11 28 81 100 97 93 80 72 91 89 92 89 93 95 98 83 83 96 96 98 94 98 96 96
29 25 50 51 29 22 10 8 26 90 100 98 97 87 95 90 95 93 99 93 100 100 94 91 89 88 88 84 84 82 97 96
40 35 42 31 25 22 12 32 100 100 97 96 83 67 100 80 96 97 95 97 95 95 95 94 87 81 78 81 95 90 95 97
98 98 76 53 42 19 24 100 99 98 72 64 96 65 77 94 95 88 87 90 94 98 92 90 86 95 95 97 87 70 79 91
92 98 100 82 94 50 40 99 95 99 99 97 80 88 91 96 86 76 83 90 85 94 94 87 91 97 98 92 82 77 75 88
60 96 98 98 90 86 50 90 98 95 80 90 96 97 94 82 88 56 58 64 88 82 95 96 94 91 92 82 75 66 59 68
100 54 67 59 78 100 93 74 99 98 97 72 69 95 100 97 99 79 92 85 96 99 87 84 80 85 78 58 48 44 43 37
100 100 100 59 97 56 55 49 50 90 96 99 100 88 96 92 94 99 88 83 98 99 88 83 78 74 69 56 48 41 35 29
99 100 100 99 97 74 71 68 93 73 100 81 66 87 90 88 79 75 64 81 79 75 81 65 63 67 50 40 38 36 23 20
100 95 97 99 95 99 99 99 90 91 100 100 100 98 98 99 97 99 89 70 54 50 61 46 36 38 37 42 47 34 32 30
100 98 95 97 95 100 99 99 97 98 96 98 98 97 97 98 94 78 70 53 43 38 32 28 27 33 44 50 38 31 27 24
100 100 100 94 89 88 98 96 97 96 83 64 82 88 91 88 86 76 60 46 37 24 21 26 31 39 40 40 38 30 27 26

GFSFLT1_500_rhum_138.txt.gz
RH
26 25 26 25 23 24 25 23 18 18 21 23 50 46 57 62 58 42 41 45 40 36 40 50 42 42 42 44 40 25 24 26
26 24 21 18 16 13 14 14 16 16 19 18 34 64 56 68 72 54 42 48 47 41 38 42 47 51 40 35 38 32 39 40
13 13 12 10 10 9 9 10 10 6 8 18 16 32 61 60 83 76 55 42 48 47 43 39 40 43 40 43 41 38 34 41
6 6 5 5 5 5 5 5 5 6 5 5 12 15 47 84 87 93 65 45 56 53 49 46 47 45 40 41 42 41 42 43
10 6 6 4 5 6 6 6 11 8 5 7 5 9 36 64 82 99 78 53 63 56 55 51 49 51 46 42 46 51 53 50
18 13 18 14 20 34 30 26 24 23 22 14 9 5 7 48 58 96 81 78 56 64 58 57 49 54 54 51 53 51 53 54
25 20 21 21 27 34 28 29 24 40 47 33 20 7 5 13 77 71 97 87 63 68 65 62 58 51 53 64 63 56 50 57
34 20 18 21 31 33 34 55 49 21 19 60 41 23 5 6 49 68 93 85 72 67 70 68 69 57 52 64 68 75 76 79
42 18 31 34 37 41 46 73 72 35 36 18 49 36 8 5 70 90 61 72 77 70 78 76 75 69 53 54 55 75 77 91
45 37 33 40 50 51 45 92 45 50 75 16 26 40 21 6 20 81 56 84 83 80 84 83 70 85 79 82 75 95 64 89
45 56 51 50 60 63 69 78 71 72 94 88 19 20 28 8 24 97 91 81 74 92 85 83 78 95 97 87 94 77 84 89
50 52 68 60 61 69 76 93 100 88 90 97 59 34 25 20 48 91 100 88 57 96 68 50 89 87 96 86 91 93 78 85
70 62 63 78 84 88 81 96 86 99 93 98 93 100 78 20 34 96 70 100 84 96 90 75 86 100 77 86 96 94 85 82
69 86 78 84 96 100 100 100 100 95 99 100 95 88 51 20 95 95 95 68 98 97 86 79 87 96 93 100 98 91 71 64
47 66 90 92 100 100 100 100 100 100 89 95 77 59 63 95 96 96 96 81 97 98 97 96 96 95 92 90 69 70 69 70
54 74 71 90 99 100 100 100 100 88 100 87 69 94 77 84 97 95 88 94 96 96 97 95 97 95 76 59 47 63 69 60
57 69 65 73 92 98 100 100 100 100 93 96 78 53 95 99 98 98 98 98 98 96 97 97 97 73 49 46 81 85 61 52
65 62 77 76 97 93 89 83 84 96 98 76 87 94 98 94 100 98 93 94 97 97 99 98 70 44 58 92 81 67 49 43
65 60 57 61 74 93 97 96 90 85 92 93 97 98 98 100 98 98 91 98 100 97 99 97 96 94 86 82 69 69 49 48

GFSFLT1_500_rhum_141.txt.gz
RH
40 39 38 36 33 31 30 30 30 28 29 28 24 21 23 36 88 49 98 90 54 44 40 42 38 35 48 42 43 38 43 30
25 23 22 20 18 23 28 27 24 22 18 21 27 26 18 18 21 91 63 96 74 55 56 42 42 36 39 50 51 40 32 35
17 15 12 10 8 8 8 8 9 10 12 10 10 20 24 15 15 25 90 88 96 79 63 46 44 41 40 44 49 53 39 32
10 8 7 7 6 4 4 4 4 4 4 5 6 7 11 16 15 15 34 83 79 95 69 54 49 47 43 44 43 45 42 40
12 6 6 8 7 7 6 5 5 6 5 6 6 4 6 9 8 12 17 49 84 95 84 59 52 53 49 45 44 46 46 47
27 21 25 17 16 17 14 15 17 24 27 28 33 30 14 5 8 6 10 22 66 94 95 60 48 55 54 49 46 47 54 59
25 31 22 30 34 29 22 20 20 28 33 32 29 28 23 21 5 6 7 11 69 81 95 54 34 51 55 52 50 54 58 62
30 33 41 48 66 53 41 38 41 30 32 38 41 32 28 43 28 6 6 6 25 73 98 81 67 46 64 60 52 55 60 61
47 46 51 50 42 46 47 41 36 28 30 44 68 57 48 56 52 15 7 6 26 40 75 94 96 57 68 66 61 62 64 68
38 57 50 44 31 30 31 27 39 28 29 57 82 61 43 36 28 29 15 6 31 29 74 99 92 83 65 71 73 70 70 74
31 36 64 54 41 36 36 36 35 34 37 50 64 53 76 46 38 31 19 7 19 17 98 93 80 84 77 75 82 84 71 73
30 29 55 56 45 53 53 39 46 39 64 78 90 76 100 40 47 40 24 12 12 23 51 97 96 89 68 69 85 89 72 81
33 34 52 65 68 65 68 59 57 67 75 91 100 96 99 40 59 40 32 12 12 58 83 98 96 95 39 56 67 53 66 89
65 49 45 59 73 91 82 72 84 94 99 99 100 100 82 36 45 49 39 21 8 100 81 95 93 74 66 64 72 73 97 89
71 66 49 65 56 90 100 99 95 97 100 100 100 100 94 43 98 46 38 18 11 30 95 97 96 95 97 84 66 82 93 96
73 72 69 74 88 88 85 94 100 100 100 100 100 100 99 54 50 97 66 20 9 44 85 98 96 93 98 86 69 93 92 96
73 77 70 71 76 86 98 86 93 100 100 100 100 94 100 100 92 64 40 20 26 83 96 96 97 95 94 98 78 100 100 97
70 69 63 61 57 63 69 95 99 98 97 100 100 100 100 99 99 100 36 90 95 97 98 96 97 97 96 97 99 96 96 95
65 66 56 51 46 43 49 59 80 99 100 100 100 100 100 100 100 90 86 97 97 96 97 95 98 98 94 96 94 95 100 91

GFSFLT1_500_rhum_144.txt.gz
RH
23 20 17 15 13 13 16 20 24 31 34 34 34 33 33 31 26 23 30 78 90 95 97 81 77 40 38 32 29 41 43 43
21 19 19 19 17 14 12 11 13 15 16 22 30 30 28 31 32 29 21 20 63 92 96 98 92 52 40 37 33 35 44 38
20 18 15 12 8 7 6 6 5 6 7 7 10 15 22 26 27 29 27 22 25 41 80 96 95 54 42 39 35 36 38 40
18 12 5 5 6 5 5 4 5 4 3 4 4 5 7 10 20 23 25 23 21 17 27 58 96 93 48 44 38 40 38 38
7 5 6 8 15 19 17 11 6 5 7 5 4 4 3 4 5 13 17 16 20 23 29 46 97 86 77 50 40 38 45 39
6 7 8 18 27 25 16 17 20 21 19 11 14 14 11 7 5 4 8 11 11 19 19 32 44 96 96 61 45 40 45 42
7 14 32 41 35 25 19 28 36 32 30 25 24 21 20 26 23 24 6 6 8 10 14 17 37 70 97 86 62 50 52 51
17 64 40 30 35 28 35 45 54 58 48 38 32 35 35 37 30 28 24 7 5 7 8 13 20 49 94 96 85 69 76 58
50 40 37 31 32 31 39 49 73 66 42 33 25 27 32 28 30 42 37 20 10 5 6 8 13 30 90 96 95 94 95 69
29 41 45 40 30 26 43 55 65 46 33 28 37 29 34 27 27 38 60 42 22 18 8 6 8 13 68 91 97 98 98 80
54 48 40 32 28 21 45 54 46 47 48 52 50 43 41 42 58 51 60 62 43 25 24 11 6 7 26 96 96 97 100 93
38 42 33 36 26 29 43 60 67 54 42 36 33 50 42 41 94 81 79 57 46 31 29 23 12 6 23 54 95 96 96 100
60 51 41 36 46 37 84 69 75 62 50 41 50 46 71 66 80 82 70 76 52 50 29 29 20 7 10 42 65 98 97 87
66 55 47 54 58 50 85 92 100 100 83 62 62 66 81 99 91 82 99 54 100 48 32 26 22 7 8 37 82 98 97 67
66 57 58 69 69 63 64 83 100 100 100 97 92 94 92 96 100 100 100 100 86 75 65 38 20 7 7 84 99 97 98 78
65 60 64 72 69 63 55 55 76 99 99 100 100 100 100 100 99 100 100 94 64 57 50 36 18 14 8 21 80 95 97 90
74 64 59 66 66 58 52 43 43 53 78 95 97 100 100 100 100 86 100 99 70 65 95 23 12 10 9 17 72 94 94 98
54 54 58 58 53 46 37 45 42 38 41 54 87 98 98 100 100 100 100 98 98 83 100 51 11 8 11 94 99 95 98 97
25 31 32 35 45 47 40 30 31 38 37 33 38 60 96 99 99 98 100 100 99 99 100 100 49 15 90 84 97 97 98 97